Home > Weather > Luanda > Past weeks

Flag for Angola Past Weather in Luanda, Angola — Yesterday and Last 2 Weeks

Now
70 °F

Fog.


Feels Like: 70 °F
Forecast: 68 / 77 °F
Wind: 3 mph from North

Location: Luanda Airport

Current Time: Jun 28, 2016 at 8:50:16 AM

Latest Report: Jun 28, 2016 at 8:00 AM


Visibility: 1 mi

Pressure: 30.01 "Hg

Humidity: 94%

Dew Point: 68 °F

Location of LuandaLocation

Past Weather in Luanda — Graph

°F

Luanda Temperature Yesterday

Maximum temperature yesterday: 79 °F (at 11:00 AM)
Minimum temperature yesterday: 68 °F (at 5:00 AM)
Average temperature yesterday: 73 °F

High & Low Weather Summary for the Past Weeks

 TemperatureHumidityPressure
High84 °F (Jun 19, 3:00 PM)100% (Jun 27, 5:00 AM)30.09 "Hg (Jun 27, 5:00 AM)
Low66 °F (Jun 26, 4:00 AM)50% (Jun 25, 11:00 PM)29.83 "Hg (Jun 24, 4:00 PM)
Average74 °F79%29.98 "Hg
* Reported Jun 13 8:00 AM — Jun 28 8:00 AM, Luanda, Weather by CustomWeather, © 2016

Note: Actual official high and low records may vary slightly from our data, if they occured in-between our weather recording intervals... More about our weather records

Advertising

Luanda Weather History for the Previous 24 Hours

Scroll right to see more
 ConditionsComfort  
Time TempWeatherWind HumidityBarometerVisibility
8:00 AM
Tue, Jun 28
70 °FFog.3 mph94%30.01 "Hg1 mi
7:00 AM68 °FFog.2 mph100%30.01 "Hg1 mi
6:00 AM68 °FClear.No wind94%30.01 "Hg4 mi
5:00 AM68 °FClear.2 mph94%29.98 "Hg5 mi
4:00 AM68 °FClear.2 mph94%29.98 "Hg5 mi
3:00 AM70 °FPassing clouds.2 mph88%29.98 "HgN/A
2:00 AM70 °FPassing clouds.No wind94%29.98 "HgN/A
12:00 AM70 °FPassing clouds.No wind94%29.98 "HgN/A
11:00 PM
Mon, Jun 27
70 °FClear.No wind88%29.98 "Hg10 mi
10:00 PM70 °FClear.3 mph94%29.98 "Hg10 mi
9:00 PM72 °FClear.7 mph88%29.95 "Hg10 mi
8:00 PM72 °FClear.5 mph83%29.95 "Hg10 mi
7:00 PM73 °FClear.3 mph83%29.92 "Hg10 mi
6:00 PM73 °FClear.2 mph78%29.92 "Hg10 mi
5:00 PM75 °FSunny.5 mph74%29.89 "Hg10 mi
4:00 PM75 °FSunny.5 mph74%29.89 "Hg10 mi
3:00 PM77 °FSunny.9 mph69%29.92 "Hg10 mi
2:00 PM79 °FScattered clouds.7 mph70%29.95 "Hg10 mi
1:00 PM79 °FScattered clouds.7 mph70%29.95 "HgN/A
12:00 PM79 °FScattered clouds.7 mph70%29.98 "HgN/A
11:00 AM79 °FScattered clouds.5 mph65%30.01 "HgN/A
10:00 AM73 °FScattered clouds.5 mph83%30.04 "Hg5 mi
9:00 AM73 °FFog.5 mph83%30.04 "Hg5 mi
8:00 AM70 °FFog.5 mph94%30.01 "Hg2 mi
Weather by CustomWeather, © 2016

See weather overviewHow to use our weather pages